User: anonymous
Location: Ostrava
(49.8330°N, 18.2830°E)
Time: 06:47:56
(UTC+02:00)
Language:

NOAA 19 - Orbit

View from above orbital plane
View from above orbital plane
View from above satellite
View from above satellite

Ground track
Ground track

The orbit data is extracted from the following two-line orbital elements,

1 33591U 09005A   14294.51022247  .00000252  00000-0  16260-3 0  4327
2 33591 098.9588 239.2424 0014975 121.2393 004.4196 14.11785122293812
Epoch (UTC): 21 October 2014 12:14:43
Eccentricity: 0.0014975
inclination: 98.9588°
perigee height: 842 km
apogee height: 864 km
right ascension of ascending node: 239.2424°
argument of perigee: 121.2393°
revolutions per day: 14.11785122
mean anomaly at epoch: 4.4196°
orbit number at epoch: 29381

The dashed part of the orbit path shows where the satellite is in the earth's shadow,  

DLR